Murray, KY

10:36 PM CDT on June 22, 2017 (GMT -0500)
Kyle-Oakley

Weather History for KCEY - December, 2012

Change the Weather History Date:

Monday, December 24, 2012

  Actual Average (KPAH) Record (KPAH)
Temperature  
Mean Temperature 41 °F -  
Max Temperature 50 °F 41 °F 68 °F (1955)
Min Temperature 32 °F 24 °F -6 °F (1983)
Degree Days  
Heating Degree Days 24    
Moisture  
Dew Point 42 °F    
Average Humidity 93    
Maximum Humidity 100    
Minimum Humidity 70    
Precipitation  
Precipitation 0.00 in - - ()
Sea Level Pressure  
Sea Level Pressure 29.90 in    
Wind  
Wind Speed 4 mph (NNW)    
Max Wind Speed 15 mph    
Max Gust Speed 24 mph    
Visibility 4 miles    
Events      
Averages and records for this station are not official NWS values.
T = Trace of Precipitation, MM = Missing Value Source: NWS Daily Summary

Daily Weather History Graph

Daily Weather History Graph

Search for Another Location

Airport or City:

Trip Planner

Search our weather history database for the weather conditions in past years. The results will help you decide how hot, cold, wet, or windy it might be!

Date:

Astronomy

Dec. 24, 2012 Rise Set
Actual Time 7:03 AM CST 4:43 PM CST
Civil Twilight 6:34 AM CST 5:12 PM CST
Nautical Twilight 6:02 AM CST 5:44 PM CST
Astronomical Twilight 5:30 AM CST 6:15 PM CST
Moon 2:08 PM CST (12/24) 3:44 AM CST (12/24)
Length of Visible Light 10h 37m
Length of Day
9h 39m
Waxing Gibbous, 88% of the Moon is Illuminated
Dec 24
Waxing Gibbous
Dec 28
Full
Jan 4
Last Quarter
Jan 11
New
Jan 18
First Quarter

Hourly Weather History & Observations

Time (CST) Temp. Windchill Dew Point Humidity Pressure Visibility Wind Dir Wind Speed Gust Speed Precip Events Conditions
12:15 AM 46.4 °F - 46.4 °F 100% 29.84 in 1.0 mi Calm Calm - N/A   Overcast
12:35 AM 46.4 °F 45.2 °F 46.4 °F 100% 29.83 in 0.5 mi SE 3.5 mph - N/A   Overcast
12:55 AM 46.4 °F - 46.4 °F 100% 29.83 in 0.8 mi Calm Calm - N/A   Overcast
1:15 AM 46.4 °F - 46.4 °F 100% 29.83 in 0.5 mi Calm Calm - N/A   Overcast
1:35 AM 48.2 °F - 48.2 °F 100% 29.83 in 0.5 mi South 3.5 mph - N/A   Overcast
1:55 AM 48.2 °F - 48.2 °F 100% 29.82 in 0.2 mi Calm Calm - N/A   Overcast
2:15 AM 48.2 °F - 48.2 °F 100% 29.81 in 0.2 mi SSE 3.5 mph - N/A   Overcast
2:35 AM 48.2 °F - 48.2 °F 100% 29.80 in 0.2 mi Calm Calm - N/A   Overcast
2:55 AM 48.2 °F - 48.2 °F 100% 29.80 in 0.2 mi Calm Calm - N/A   Overcast
3:15 AM 48.2 °F - 48.2 °F 100% 29.80 in 0.2 mi North 3.5 mph - N/A   Overcast
3:35 AM 48.2 °F - 48.2 °F 100% 29.79 in 0.2 mi NNE 3.5 mph - N/A   Overcast
3:55 AM 48.2 °F - 48.2 °F 100% 29.79 in 0.2 mi Calm Calm - N/A   Overcast
4:15 AM 48.2 °F - 48.2 °F 100% 29.79 in 0.2 mi Calm Calm - N/A   Overcast
4:35 AM 46.4 °F - 46.4 °F 100% 29.79 in 0.5 mi Calm Calm - N/A   Overcast
4:55 AM 46.4 °F - 46.4 °F 100% 29.79 in 0.5 mi Calm Calm - N/A   Overcast
5:15 AM 46.4 °F - 46.4 °F 100% 29.79 in 0.8 mi Calm Calm - N/A   Overcast
5:35 AM 46.4 °F 45.2 °F 46.4 °F 100% 29.79 in 0.5 mi SE 3.5 mph - N/A   Overcast
5:55 AM 46.4 °F - 46.4 °F 100% 29.79 in 0.8 mi Calm Calm - N/A   Overcast
6:15 AM 48.2 °F - 48.2 °F 100% 29.80 in 0.8 mi Calm Calm - N/A   Overcast
6:35 AM 48.2 °F - 48.2 °F 100% 29.80 in 0.5 mi Calm Calm - N/A   Overcast
6:55 AM 48.2 °F - 48.2 °F 100% 29.81 in 0.5 mi Calm Calm - N/A   Overcast
7:15 AM 48.2 °F - 48.2 °F 100% 29.81 in 0.8 mi Calm Calm - N/A   Overcast
7:35 AM 48.2 °F - 48.2 °F 100% 29.82 in 0.5 mi NNW 3.5 mph - N/A   Overcast
7:55 AM 48.2 °F - 48.2 °F 100% 29.82 in 0.5 mi NNW 3.5 mph - N/A   Mostly Cloudy
8:15 AM 48.2 °F - 48.2 °F 100% 29.83 in 0.2 mi WNW 4.6 mph - N/A   Overcast
8:35 AM 48.2 °F - 48.2 °F 100% 29.85 in 0.2 mi WNW 5.8 mph - N/A   Overcast
8:55 AM 48.2 °F - 48.2 °F 100% 29.86 in 0.2 mi WNW 6.9 mph - N/A   Overcast
9:15 AM 50.0 °F - 50.0 °F 100% 29.87 in 3.0 mi WNW 8.1 mph - N/A   Overcast
9:35 AM 50.0 °F - 50.0 °F 100% 29.88 in 5.0 mi WNW 8.1 mph - N/A   Overcast
9:55 AM 50.0 °F - 50.0 °F 100% 29.89 in 2.5 mi WNW 11.5 mph - N/A   Overcast
10:15 AM 48.2 °F - 48.2 °F 100% 29.90 in 1.2 mi WNW 10.4 mph 17.3 mph N/A   Overcast
10:35 AM 48.2 °F - 48.2 °F 100% 29.89 in 1.8 mi NNW 5.8 mph - N/A   Overcast
10:55 AM 50.0 °F - 50.0 °F 100% 29.89 in 3.0 mi NW 8.1 mph - N/A   Overcast
11:15 AM 50.0 °F - 50.0 °F 100% 29.88 in 9.0 mi NNW 6.9 mph - N/A   Overcast
11:35 AM 50.0 °F - 50.0 °F 100% 29.88 in 10.0 mi NW 9.2 mph - N/A   Overcast
11:55 AM 50.0 °F - 50.0 °F 100% 29.87 in 8.0 mi NW 10.4 mph - N/A   Overcast
12:15 PM 48.2 °F - 48.2 °F 100% 29.87 in 1.0 mi NNW 11.5 mph - N/A   Overcast
12:35 PM 46.4 °F 41.1 °F 46.4 °F 100% 29.87 in 2.0 mi NW 11.5 mph - N/A   Overcast
12:55 PM 46.4 °F 42.4 °F 46.4 °F 100% 29.88 in 3.0 mi NW 8.1 mph - N/A   Overcast
1:15 PM 46.4 °F 42.4 °F 46.4 °F 100% 29.87 in 3.0 mi NNW 8.1 mph - N/A   Overcast
1:35 PM 46.4 °F 42.9 °F 46.4 °F 100% 29.86 in 4.0 mi NW 6.9 mph - N/A   Overcast
1:55 PM 46.4 °F 42.4 °F 46.4 °F 100% 29.87 in 5.0 mi NW 8.1 mph - N/A   Overcast
2:15 PM 46.4 °F 42.4 °F 44.6 °F 93% 29.88 in 5.0 mi NW 8.1 mph - N/A   Overcast
2:35 PM 48.2 °F - 44.6 °F 87% 29.87 in 10.0 mi WNW 3.5 mph - N/A   Overcast
2:55 PM 48.2 °F - 42.8 °F 82% 29.89 in 10.0 mi NNW 4.6 mph - N/A   Mostly Cloudy
3:15 PM 48.2 °F - 44.6 °F 87% 29.90 in 10.0 mi West 3.5 mph - N/A   Mostly Cloudy
3:35 PM 48.2 °F - 44.6 °F 87% 29.91 in 10.0 mi West 3.5 mph - N/A   Mostly Cloudy
3:55 PM 48.2 °F - 42.8 °F 82% 29.91 in 10.0 mi NW 3.5 mph - N/A   Mostly Cloudy
4:15 PM 46.4 °F 45.2 °F 39.2 °F 76% 29.91 in 10.0 mi NNW 3.5 mph - N/A   Clear
4:35 PM 46.4 °F 45.2 °F 39.2 °F 76% 29.92 in 10.0 mi North 3.5 mph - N/A   Clear
4:55 PM 44.6 °F - 37.4 °F 76% 29.92 in 10.0 mi Calm Calm - N/A   Clear
5:15 PM 42.8 °F - 37.4 °F 81% 29.93 in 10.0 mi Calm Calm - N/A   Mostly Cloudy
5:35 PM 42.8 °F 36.6 °F 35.6 °F 76% 29.94 in 10.0 mi North 11.5 mph - N/A   Overcast
5:55 PM 41.0 °F 34.7 °F 32.0 °F 70% 29.96 in 10.0 mi North 10.4 mph - N/A   Mostly Cloudy
6:15 PM 39.2 °F 31.2 °F 32.0 °F 75% 29.97 in 10.0 mi North 13.8 mph - N/A   Mostly Cloudy
6:35 PM 37.4 °F 28.9 °F 32.0 °F 81% 29.99 in 10.0 mi NNW 13.8 mph 24.2 mph N/A   Partly Cloudy
6:55 PM 37.4 °F 30.3 °F 32.0 °F 81% 30.00 in 10.0 mi NNW 10.4 mph 16.1 mph N/A   Partly Cloudy
7:15 PM 35.6 °F 27.5 °F 32.0 °F 87% 30.00 in 9.0 mi North 11.5 mph - N/A   Clear
7:35 PM 33.8 °F 25.3 °F 30.2 °F 87% 30.01 in 7.0 mi NNE 11.5 mph - N/A   Clear
7:55 PM 32.0 °F 24.8 °F 28.4 °F 87% 30.03 in 6.0 mi North 8.1 mph - N/A   Clear
8:15 PM 32.0 °F 23.0 °F 28.4 °F 87% 30.04 in 6.0 mi North 11.5 mph - N/A   Clear
8:35 PM 32.0 °F 23.0 °F 28.4 °F 87% 30.04 in 5.0 mi North 11.5 mph - N/A   Scattered Clouds
8:55 PM 32.0 °F 21.6 °F 28.4 °F 87% 30.04 in 5.0 mi NNE 15.0 mph - N/A   Overcast
9:15 PM 32.0 °F 24.2 °F 28.4 °F 87% 30.05 in 6.0 mi North 9.2 mph - N/A   Overcast
9:35 PM 32.0 °F 23.6 °F 28.4 °F 87% 30.05 in 6.0 mi North 10.4 mph - N/A   Overcast
9:55 PM 32.0 °F 22.1 °F 28.4 °F 87% 30.06 in 7.0 mi North 13.8 mph - N/A   Overcast
10:15 PM 32.0 °F 23.0 °F 28.4 °F 87% 30.06 in 7.0 mi NNE 11.5 mph - N/A   Overcast
10:35 PM 32.0 °F 23.0 °F 28.4 °F 87% 30.06 in 7.0 mi NNE 11.5 mph - N/A   Overcast
10:55 PM 32.0 °F 23.6 °F 28.4 °F 87% 30.06 in 8.0 mi NNE 10.4 mph - N/A   Overcast
11:15 PM 32.0 °F 24.2 °F 28.4 °F 87% 30.06 in 8.0 mi NNE 9.2 mph - N/A   Overcast
11:35 PM 32.0 °F 24.2 °F 28.4 °F 87% 30.07 in 8.0 mi NNE 9.2 mph - N/A   Overcast
11:55 PM 32.0 °F 22.1 °F 28.4 °F 87% 30.06 in 10.0 mi NNE 13.8 mph - N/A   Overcast